Location: Bruch
(44.2051°N, 0.4120°E)
Time: 05:37:24
(UTC+00:00)

CZ-4B DEB - Pass Details

Date: 29 November 2020
Orbit: 841 x 861 km, 99.1° (Epoch: 27 January)

Event Time Altitude Azimuth Distance (km) Brightness Sun altitude
Rises 06:10:02 0° 13° (NNE) 3,408 7.3 -10.9°
Reaches altitude 10° 06:12:25 10° 12° (NNE) 2,469 6.6 -10.5°
Maximum altitude 06:17:53 78° 287° (WNW) 867 4.2 -9.6°
Drops below altitude 10° 06:23:19 10° 202° (SSW) 2,460 6.6 -8.6°
Sets 06:25:41 0° 201° (SSW) 3,393 7.4 -8.3°
